Location: Smoky Mountain Stargaze
(35.4252°N, 83.3329°W)
Time: 02:30:23
(UTC-05:00)

Amateur Radio Satellites - All Passes

Search period start: 27 February 2015 02:00
Search period end: 28 February 2015 02:00
Location: Smoky Mountain Stargaze, 35.4252°N, 83.3329°W

Satellite Date Start Highest point End Downlink Frequencies (MHz)
Time Altitude Azimuth
ITAMSAT 1 27 Feb 02:06:48 02:11:04 26° 95° (E) 02:15:26 435.822/435.867
KKS-1 27 Feb 02:10:05 02:14:23 47° 74° (ENE) 02:18:42 437.445
DANDE 27 Feb 02:11:48 02:18:02 27° 284° (WNW) 02:23:00 436.750
RS-15 27 Feb 02:17:22 02:27:02 33° 318° (NW) 02:36:37 29.354- 29.394
Oscar 19 27 Feb 02:17:25 02:22:33 76° 285° (WNW) 02:27:40 437.125/150
SWISSCUBE 27 Feb 02:17:58 02:21:49 23° 265° (W) 02:25:35 437.505
STARS 27 Feb 02:26:26 02:30:40 45° 74° (ENE) 02:34:56 437.465
BEESAT 27 Feb 02:27:46 02:31:21 20° 266° (W) 02:34:48 436.000
SO-50 27 Feb 02:30:45 02:35:06 47° 115° (ESE) 02:39:38 436.795
YUBILEINY 27 Feb 02:39:15 02:44:47 19° 65° (ENE) 02:50:50 435.215
PHONESAT 2.4 27 Feb 02:41:47 02:44:17 18° 216° (SW) 02:46:42 2401.200-2431.200
BEESAT 3 27 Feb 02:45:05 02:47:31 15° 48° (NE) 02:50:03 437.485
Gurwin Techsat 1B 27 Feb 02:52:51 02:58:05 56° 100° (E) 03:03:17 435.225
ITUPSAT 1 27 Feb 02:54:53 02:56:19 11° 271° (W) 02:57:24 437.325
BEESAT 2 27 Feb 03:05:17 03:08:25 21° 50° (NE) 03:11:38 435.950
JAS-2 27 Feb 03:31:32 03:35:36 16° 88° (E) 03:40:17 435.910
JUGNU 27 Feb 03:37:47 03:40:02 12° 168° (SSE) 03:42:24 437.505
AO-7 27 Feb 03:43:29 03:50:17 29° 95° (E) 03:57:19 29.400- 29.500
ITAMSAT 1 27 Feb 03:45:57 03:50:37 33° 290° (WNW) 03:55:10 435.822/435.867
KKS-1 27 Feb 03:49:04 03:51:21 13° 269° (W) 03:53:23 437.445
STARS 27 Feb 04:05:07 04:07:27 13° 269° (W) 04:09:31 437.465
HORYU 2 27 Feb 04:05:59 04:10:27 87° 104° (ESE) 04:14:53 437.375
M-CUBED/EXP-1 PRIME 27 Feb 04:11:14 04:14:29 56° 255° (WSW) 04:17:45 437.505
SO-50 27 Feb 04:12:38 04:15:57 19° 313° (NW) 04:19:15 436.795
AIST 2 27 Feb 04:16:42 04:20:48 44° 57° (ENE) 04:24:50 435.215
AUBIESAT-1 27 Feb 04:16:50 04:20:02 53° 255° (WSW) 04:23:19 437.475
BEESAT 3 27 Feb 04:21:56 04:25:54 45° 245° (WSW) 04:29:46 437.485
MOZHAYETS 4 27 Feb 04:27:32 04:32:02 65° 76° (ENE) 04:36:35
YUBILEINY 27 Feb 04:33:58 04:42:50 81° 265° (W) 04:51:39 435.215
Gurwin Techsat 1B 27 Feb 04:34:17 04:37:39 17° 294° (WNW) 04:40:46 435.225
RS-15 27 Feb 04:39:53 04:44:30 13° 351° (N) 04:48:58 29.354- 29.394
BEESAT 2 27 Feb 04:42:59 04:46:41 31° 247° (WSW) 04:50:16 435.950
JAS-2 27 Feb 05:13:58 05:21:22 87° 284° (WNW) 05:29:14 435.910
SRMSAT 27 Feb 05:19:35 05:22:04 13° 168° (SSE) 05:24:38 437.500
JUGNU 27 Feb 05:24:34 05:28:21 17° 177° (S) 05:32:09 437.505
PRISM 27 Feb 05:31:55 05:35:07 23° 70° (ENE) 05:38:26 437.425
AO-7 27 Feb 05:35:27 05:43:30 55° 292° (WNW) 05:51:27 29.400- 29.500
AIST 2 27 Feb 05:56:44 05:59:03 14° 250° (WSW) 06:01:10 435.215
PCSat 27 Feb 06:02:08 06:05:27 17° 48° (NE) 06:08:58 145.827
CUBESAT XI-V 27 Feb 06:14:40 06:19:17 67° 76° (ENE) 06:23:58 437.345
STRAND 1 27 Feb 06:19:25 06:24:19 48° 73° (ENE) 06:29:17 437.568
YUBILEINY 27 Feb 06:34:46 06:38:30 13° 280° (W) 06:41:28 435.215
Cubesat XI-IV 27 Feb 06:40:27 06:45:46 61° 101° (E) 06:51:03 437.490
CUTE-I 27 Feb 06:50:37 06:56:00 75° 102° (ESE) 07:01:21 437.470
RS-15 27 Feb 06:56:04 07:03:24 19° 27° (NNE) 07:11:21 29.354- 29.394
JAS-2 27 Feb 07:01:21 07:05:42 16° 297° (WNW) 07:09:45 435.910
SRMSAT 27 Feb 07:06:44 07:10:32 17° 178° (S) 07:14:20 437.500
PRISM 27 Feb 07:07:11 07:10:34 24° 265° (W) 07:13:53 437.425
JUGNU 27 Feb 07:13:13 07:16:40 16° 187° (S) 07:20:04 437.505
PCSat 27 Feb 07:44:04 07:49:28 68° 246° (WSW) 07:54:49 145.827
STRAND 1 27 Feb 08:00:27 08:03:50 17° 268° (W) 08:07:00 437.568
AIST 1 27 Feb 08:13:29 08:17:47 68° 278° (W) 08:22:09
CUTE 1.7 + AOD 2 27 Feb 08:17:53 08:19:33 12° 90° (E) 08:21:28 437.475
Cubesat XI-IV 27 Feb 08:22:11 08:25:25 16° 295° (WNW) 08:28:23 437.490
DOVE 4 27 Feb 08:30:49 08:32:20 12° 89° (E) 08:34:06 437.250
CUTE-I 27 Feb 08:33:08 08:35:31 13° 296° (WNW) 08:37:35 437.470
GONETS M04 27 Feb 08:46:19 08:53:24 28° 70° (ENE) 09:00:46
BRITE-PL 27 Feb 08:47:37 08:52:07 49° 98° (E) 08:56:18 437.365/2234.400
SRMSAT 27 Feb 08:55:40 08:59:00 15° 188° (S) 09:02:16 437.500
CINEMA 3 27 Feb 09:07:17 09:09:54 17° 92° (E) 09:12:39 145.822/145.860
RS-15 27 Feb 09:07:36 09:18:56 62° 55° (NE) 09:30:48 29.354- 29.394
GOMX 1 27 Feb 09:12:40 09:17:05 62° 100° (E) 09:21:16 467.674
HO-68 27 Feb 09:13:17 09:20:24 63° 102° (ESE) 09:27:31 435.675
DELFI C3 27 Feb 09:13:20 09:14:16 11° 90° (E) 09:15:28 145.870
COMPASS 1 27 Feb 09:14:11 09:18:09 41° 98° (E) 09:22:09 437.405
AAUSAT CUBESAT 2 27 Feb 09:14:52 09:18:43 35° 98° (E) 09:22:36 437.432
O/OREOS (USA 219) 27 Feb 09:24:08 09:27:12 19° 102° (ESE) 09:30:27 437.305
UWE-3 27 Feb 09:26:16 09:27:40 12° 90° (E) 09:29:19 435.000/436.395/437.385
ISS 27 Feb 09:27:32 09:29:53 19° 130° (SE) 09:32:19 145.825
CANX-2 27 Feb 09:32:22 09:36:36 70° 284° (WNW) 09:40:49 2200.000
UKube-1 27 Feb 09:32:47 09:33:25 10° 90° (E) 09:34:22 .
SEEDS 27 Feb 09:35:28 09:39:42 86° 283° (WNW) 09:43:56 437.485
DUCHIFAT 1 27 Feb 09:44:07 09:46:09 14° 68° (ENE) 09:48:22 145.980
UNISAT 6 27 Feb 09:49:57 09:53:51 30° 72° (ENE) 09:57:43 437.425
CUTE 1.7 + AOD 2 27 Feb 09:51:44 09:55:47 44° 286° (WNW) 09:59:50 437.475
CUBEBUG 2 27 Feb 09:53:29 09:57:13 32° 97° (E) 10:00:57 437.445
BUGSAT 1 27 Feb 09:54:15 09:56:11 13° 68° (ENE) 09:58:21 437.445
POLYITAN 1 27 Feb 09:58:27 10:01:36 21° 70° (ENE) 10:04:52 437.675
POPSAT HIP 1 27 Feb 10:00:56 10:04:10 22° 70° (ENE) 10:07:30 437.405
DOVE 4 27 Feb 10:06:24 10:10:31 43° 286° (WNW) 10:14:28 437.250
Oscar 11 27 Feb 10:13:39 10:17:59 84° 100° (E) 10:22:19 145.826/435.025
TIGRISAT 27 Feb 10:16:26 10:20:50 61° 76° (ENE) 10:25:11 435.000
AISAT 27 Feb 10:17:42 10:20:15 15° 92° (E) 10:22:59 437.250
NANOSAT C BR1 27 Feb 10:24:48 10:28:49 40° 73° (ENE) 10:32:52 145.865
50 SAT 27 Feb 10:27:15 10:29:52 17° 93° (E) 10:32:37 437.505
ANTELSAT 27 Feb 10:27:43 10:32:13 86° 73° (ENE) 10:36:37 437.575/2403.000
BRITE-PL 27 Feb 10:27:57 10:30:11 13° 295° (WNW) 10:32:08 437.365/2234.400
VELOX 1 27 Feb 10:28:36 10:31:50 20° 94° (E) 10:35:10 145.980
DX 1 27 Feb 10:31:07 10:35:27 59° 101° (E) 10:39:45 434.975-435.025
GONETS M04 27 Feb 10:42:16 10:50:46 56° 269° (W) 10:59:13
CINEMA 3 27 Feb 10:43:32 10:47:17 31° 287° (WNW) 10:50:54 145.822/145.860
DELFI C3 27 Feb 10:45:52 10:49:48 47° 285° (WNW) 10:53:43 145.870
ZACube-1 27 Feb 10:50:03 10:54:12 75° 283° (WNW) 10:58:20 437.345
FUNcube-1 27 Feb 10:50:15 10:54:24 76° 283° (WNW) 10:58:32 145.935
COMPASS 1 27 Feb 10:51:16 10:53:34 14° 291° (WNW) 10:55:42 437.405
AAUSAT CUBESAT 2 27 Feb 10:51:30 10:54:07 16° 291° (WNW) 10:56:36 437.432
QB50P1 27 Feb 10:56:17 11:00:35 82° 258° (WSW) 11:04:53 145.935-145.965
QB50P2 27 Feb 10:58:44 11:03:01 75° 258° (WSW) 11:07:20 145.880/145.840
UWE-3 27 Feb 11:00:35 11:04:32 44° 286° (WNW) 11:08:29 435.000/436.395/437.385
HO-68 27 Feb 11:02:11 11:07:39 23° 297° (WNW) 11:12:51 435.675
O/OREOS (USA 219) 27 Feb 11:02:14 11:06:24 34° 296° (WNW) 11:10:34 437.305
ISS 27 Feb 11:03:14 11:06:10 32° 324° (NW) 11:09:07 145.825
SO-50 27 Feb 11:05:30 11:09:19 22° 49° (NE) 11:13:13 436.795
UKube-1 27 Feb 11:05:44 11:10:00 55° 286° (WNW) 11:14:13 .
DUCHIFAT 1 27 Feb 11:17:32 11:21:39 45° 261° (W) 11:25:47 145.980
RS-15 27 Feb 11:20:46 11:30:57 36° 252° (WSW) 11:41:08 29.354- 29.394
HUMSAT D 27 Feb 11:24:01 11:28:03 57° 285° (WNW) 11:32:04 437.325/437.525
BUGSAT 1 27 Feb 11:27:13 11:31:19 46° 261° (W) 11:35:27 437.445
UNISAT 6 27 Feb 11:27:19 11:30:42 20° 266° (W) 11:33:53 437.425
CUBEBUG 2 27 Feb 11:30:59 11:33:43 17° 291° (WNW) 11:36:19 437.445
POLYITAN 1 27 Feb 11:33:38 11:37:24 29° 264° (W) 11:41:07 437.675
POPSAT HIP 1 27 Feb 11:36:14 11:39:56 27° 264° (W) 11:43:36 437.405
TISAT 1 27 Feb 11:41:42 11:42:31 11° 90° (E) 11:43:36 437.305
AISAT 27 Feb 11:52:55 11:57:06 40° 287° (WNW) 12:01:12 437.250
Oscar 19 27 Feb 11:55:33 11:57:27 12° 65° (ENE) 11:59:39 437.125/150
50 SAT 27 Feb 12:01:33 12:04:57 27° 288° (WNW) 12:08:16 437.505
NANOSAT C BR1 27 Feb 12:02:31 12:04:55 14° 268° (W) 12:07:07 145.865
VELOX 1 27 Feb 12:04:33 12:08:28 31° 289° (WNW) 12:12:20 145.980
ESTCUBE 1 27 Feb 12:05:04 12:09:36 67° 284° (WNW) 12:14:06 437.505/2401.250
CUSAT 1 27 Feb 12:07:09 12:09:46 73° 262° (W) 12:12:22 437.405
CUBEBUG 1 27 Feb 12:09:41 12:14:05 63° 285° (WNW) 12:18:23 437.445
DX 1 27 Feb 12:09:53 12:11:15 11° 294° (WNW) 12:12:22 434.975-435.025
SO-50 27 Feb 12:45:24 12:50:05 43° 246° (WSW) 12:54:42 436.795
BEESAT 27 Feb 12:54:45 12:56:04 11° 89° (E) 12:57:46 436.000
SPROUT 27 Feb 12:56:56 13:01:14 77° 283° (WNW) 13:05:30 437.525
DANDE 27 Feb 12:59:10 13:00:37 13° 268° (W) 13:01:56 436.750
TISAT 1 27 Feb 13:14:36 13:18:43 51° 285° (WNW) 13:22:47 437.305
ITUPSAT 1 27 Feb 13:17:47 13:21:22 21° 94° (E) 13:25:04 437.325
ITAMSAT 1 27 Feb 13:21:51 13:26:16 30° 70° (ENE) 13:30:49 435.822/435.867
Oscar 19 27 Feb 13:31:09 13:36:18 72° 259° (W) 13:41:26 437.125/150
KKS-1 27 Feb 14:06:43 14:08:04 11° 90° (E) 14:09:41 437.445
Gurwin Techsat 1B 27 Feb 14:10:50 14:16:04 65° 75° (ENE) 14:21:22 435.225
SWISSCUBE 27 Feb 14:20:17 14:25:06 72° 285° (WNW) 14:29:53 437.505
STARS 27 Feb 14:22:22 14:23:00 10° 90° (E) 14:23:57 437.465
BEESAT 27 Feb 14:29:41 14:34:26 62° 286° (WNW) 14:39:09 436.000
AO-7 27 Feb 14:39:24 14:46:22 32° 62° (ENE) 14:53:32 29.400- 29.500
ITUPSAT 1 27 Feb 14:54:59 14:59:22 34° 289° (WNW) 15:03:40 437.325
ITAMSAT 1 27 Feb 15:01:14 15:05:45 29° 264° (W) 15:10:12 435.822/435.867
HORYU 2 27 Feb 15:01:20 15:05:39 54° 74° (ENE) 15:10:00 437.375
JAS-2 27 Feb 15:24:57 15:29:14 26° 67° (ENE) 15:33:59 435.910
YUBILEINY 27 Feb 15:36:53 15:43:06 23° 84° (E) 15:49:44 435.215
KKS-1 27 Feb 15:40:47 15:45:07 52° 285° (WNW) 15:49:24 437.445
Gurwin Techsat 1B 27 Feb 15:54:07 15:56:37 13° 271° (W) 15:58:45 435.225
STARS 27 Feb 15:55:37 15:59:55 56° 285° (WNW) 16:04:11 437.465
M-CUBED/EXP-1 PRIME 27 Feb 15:56:18 15:58:18 13° 98° (E) 16:00:38 437.505
ISS 27 Feb 15:58:14 15:59:07 11° 23° (NNE) 16:00:05 145.825
AUBIESAT-1 27 Feb 16:01:21 16:03:26 14° 98° (E) 16:05:50 437.475
MOZHAYETS 4 27 Feb 16:26:40 16:29:59 20° 93° (E) 16:33:26
AO-7 27 Feb 16:30:43 16:38:51 53° 258° (WSW) 16:46:57 29.400- 29.500
CUTE-I 27 Feb 16:34:45 16:35:21 10° 62° (ENE) 16:36:18 437.470
HORYU 2 27 Feb 16:41:13 16:42:44 11° 270° (W) 16:43:56 437.375
JAS-2 27 Feb 17:09:26 17:14:14 34° 265° (W) 17:19:23 435.910
M-CUBED/EXP-1 PRIME 27 Feb 17:29:22 17:33:24 48° 290° (WNW) 17:37:44 437.505
YUBILEINY 27 Feb 17:30:40 17:39:18 64° 280° (W) 17:48:00 435.215
ISS 27 Feb 17:32:51 17:36:05 69° 41° (NE) 17:39:18 145.825
AUBIESAT-1 27 Feb 17:34:25 17:38:27 47° 290° (WNW) 17:42:47 437.475
Cubesat XI-IV 27 Feb 17:59:22 18:04:42 74° 75° (ENE) 18:10:05 437.490
MOZHAYETS 4 27 Feb 18:03:08 18:07:19 34° 287° (WNW) 18:11:27
CUTE-I 27 Feb 18:09:23 18:14:45 90° 117° (ESE) 18:20:10 437.470
BEESAT 3 27 Feb 18:12:28 18:16:30 68° 117° (ESE) 18:20:37 437.485
VERMONT LUNAR 27 Feb 18:12:41 18:15:36 25° 147° (SSE) 18:18:35 437.305
AIST 2 27 Feb 18:12:53 18:15:56 20° 111° (ESE) 18:19:08 435.215
CUBESAT XI-V 27 Feb 18:15:24 18:18:57 22° 93° (E) 18:22:36 437.345
AIST 1 27 Feb 18:24:36 18:27:58 22° 74° (ENE) 18:31:25
STRAND 1 27 Feb 18:33:53 18:37:37 21° 93° (E) 18:41:32 437.568
BEESAT 2 27 Feb 18:33:58 18:38:03 79° 298° (WNW) 18:42:14 435.950
PRISM 27 Feb 18:51:59 18:56:10 58° 101° (E) 19:00:20 437.425
PHONESAT 2.4 27 Feb 19:29:00 19:32:31 48° 152° (SSE) 19:36:03 2401.200-2431.200
DOVE 4 27 Feb 19:33:26 19:35:35 13° 67° (ENE) 19:38:00 437.250
O/OREOS (USA 219) 27 Feb 19:36:15 19:39:52 23° 61° (ENE) 19:43:33 437.305
HO-68 27 Feb 19:38:58 19:45:10 34° 66° (ENE) 19:51:30 435.675
Cubesat XI-IV 27 Feb 19:43:38 19:45:28 11° 271° (W) 19:46:54 437.490
VERMONT LUNAR 27 Feb 19:49:54 19:53:23 66° 341° (NNW) 19:56:52 437.305
AIST 2 27 Feb 19:50:31 19:54:22 32° 306° (NW) 19:58:14 435.215
CUBESAT XI-V 27 Feb 19:52:15 19:56:28 32° 288° (WNW) 20:00:36 437.345
BEESAT 3 27 Feb 19:53:38 19:55:07 11° 315° (NW) 19:56:27 437.485
BRITE-PL 27 Feb 19:53:56 19:59:21 47° 74° (ENE) 20:04:41 437.365/2234.400
AIST 1 27 Feb 20:01:56 20:05:39 26° 270° (W) 20:09:14
COMPASS 1 27 Feb 20:03:37 20:06:34 20° 70° (ENE) 20:09:38 437.405
AAUSAT CUBESAT 2 27 Feb 20:04:08 20:06:46 17° 70° (ENE) 20:09:33 437.432
CINEMA 3 27 Feb 20:06:46 20:09:11 14° 68° (ENE) 20:11:47 145.822/145.860
STRAND 1 27 Feb 20:12:12 20:17:00 39° 289° (WNW) 20:21:44 437.568
GOMX 1 27 Feb 20:16:32 20:21:49 53° 75° (ENE) 20:26:58 467.674
CANX-2 27 Feb 20:22:17 20:26:24 54° 75° (ENE) 20:30:32 2200.000
SEEDS 27 Feb 20:24:45 20:28:42 43° 74° (ENE) 20:32:41 437.485
PRISM 27 Feb 20:30:13 20:31:14 11° 294° (WNW) 20:32:00 437.425
PCSat 27 Feb 20:40:31 20:44:44 24° 108° (ESE) 20:49:07 145.827
CUTE 1.7 + AOD 2 27 Feb 20:41:18 20:45:31 85° 78° (ENE) 20:49:45 437.475
CUBEBUG 2 27 Feb 20:49:18 20:52:42 22° 71° (ENE) 20:56:09 437.445
Oscar 11 27 Feb 21:05:30 21:09:33 43° 74° (ENE) 21:13:39 145.826/435.025
PHONESAT 2.4 27 Feb 21:07:30 21:11:02 47° 347° (NNW) 21:14:33 2401.200-2431.200
DOVE 4 27 Feb 21:07:40 21:12:55 69° 259° (WSW) 21:17:59 437.250
AISAT 27 Feb 21:14:53 21:15:44 11° 66° (ENE) 21:16:53 437.250
O/OREOS (USA 219) 27 Feb 21:15:19 21:19:20 29° 256° (WSW) 21:23:14 437.305
DX 1 27 Feb 21:23:55 21:27:53 35° 72° (ENE) 21:31:54 434.975-435.025
VELOX 1 27 Feb 21:24:43 21:26:51 14° 67° (ENE) 21:29:13 145.980
HO-68 27 Feb 21:26:08 21:32:48 40° 262° (W) 21:39:24 435.675
VERMONT LUNAR 27 Feb 21:28:25 21:31:38 34° 358° (N) 21:34:51 437.305
DELFI C3 27 Feb 21:30:36 21:34:35 68° 77° (ENE) 21:38:37 145.870
BRITE-PL 27 Feb 21:33:45 21:38:04 21° 268° (W) 21:42:07 437.365/2234.400
AAUSAT CUBESAT 2 27 Feb 21:38:29 21:42:13 32° 264° (W) 21:45:55 437.432
COMPASS 1 27 Feb 21:38:32 21:42:09 28° 264° (W) 21:45:41 437.405
CINEMA 3 27 Feb 21:41:15 21:46:03 54° 261° (W) 21:50:41 145.822/145.860
ZACube-1 27 Feb 21:42:49 21:47:10 57° 76° (ENE) 21:51:28 437.345
FUNcube-1 27 Feb 21:42:51 21:47:11 56° 76° (ENE) 21:51:28 145.935
GONETS M04 27 Feb 21:43:36 21:51:05 35° 87° (E) 21:58:46
UWE-3 27 Feb 21:54:11 21:58:44 84° 260° (W) 22:03:09 435.000/436.395/437.385
GOMX 1 27 Feb 21:56:34 22:00:13 17° 269° (W) 22:03:33 467.674
UKube-1 27 Feb 21:57:22 22:01:43 83° 77° (ENE) 22:06:06 .
SEEDS 27 Feb 22:02:53 22:04:48 12° 269° (W) 22:06:29 437.485
TIGRISAT 27 Feb 22:12:39 22:15:01 15° 92° (E) 22:17:36 435.000
HUMSAT D 27 Feb 22:12:43 22:16:55 65° 77° (ENE) 22:21:05 437.325/437.525
PCSat 27 Feb 22:22:54 22:27:58 39° 303° (WNW) 22:33:02 145.827
ANTELSAT 27 Feb 22:23:38 22:26:52 21° 94° (E) 22:30:14 437.575/2403.000
CUBEBUG 2 27 Feb 22:25:11 22:29:16 30° 263° (W) 22:33:13 437.445
Oscar 11 27 Feb 22:43:48 22:46:01 13° 269° (W) 22:47:59 145.826/435.025
50 SAT 27 Feb 22:44:36 22:48:36 72° 259° (W) 22:52:35 437.505
QB50P1 27 Feb 22:45:37 22:48:41 20° 94° (E) 22:51:52 145.935-145.965
PHONESAT 2.4 27 Feb 22:46:32 22:49:55 36° 4° (N) 22:53:18 2401.200-2431.200
AISAT 27 Feb 22:47:24 22:51:52 66° 259° (W) 22:56:22 437.250
QB50P2 27 Feb 22:48:07 22:51:21 22° 94° (E) 22:54:41 145.880/145.840
VELOX 1 27 Feb 22:58:42 23:03:03 49° 260° (W) 23:07:26 145.980
DX 1 27 Feb 23:01:15 23:04:16 17° 267° (W) 23:07:08 434.975-435.025
ESTCUBE 1 27 Feb 23:01:31 23:06:01 78° 76° (ENE) 23:10:33 437.505/2401.250
CUBEBUG 1 27 Feb 23:02:33 23:06:58 73° 76° (ENE) 23:11:25 437.445
DUCHIFAT 1 27 Feb 23:05:45 23:09:35 34° 97° (E) 23:13:26 145.980
VERMONT LUNAR 27 Feb 23:06:33 23:09:57 50° 14° (NNE) 23:13:20 437.305
BUGSAT 1 27 Feb 23:13:03 23:16:44 30° 96° (E) 23:20:23 437.445
UNISAT 6 27 Feb 23:21:00 23:25:17 77° 284° (WNW) 23:29:37 437.425
POLYITAN 1 27 Feb 23:21:47 23:25:57 57° 100° (E) 23:30:06 437.675
FUNcube-1 27 Feb 23:22:57 23:23:56 10° 270° (W) 23:24:36 145.935
ZACube-1 27 Feb 23:23:08 23:23:57 10° 270° (W) 23:24:27 437.345
POPSAT HIP 1 27 Feb 23:24:02 23:28:12 59° 100° (E) 23:32:21 437.405
RS-15 27 Feb 23:27:32 23:37:51 52° 111° (ESE) 23:48:20 29.354- 29.394
CUSAT 1 27 Feb 23:29:32 23:33:57 19° 94° (E) 23:38:02 437.405
GONETS M04 27 Feb 23:39:34 23:47:48 44° 285° (WNW) 23:55:56
SPROUT 27 Feb 23:47:56 23:52:09 54° 75° (ENE) 23:56:26 437.525
TIGRISAT 27 Feb 23:48:02 23:51:59 37° 287° (WNW) 23:55:57 435.000
NANOSAT C BR1 27 Feb 23:48:31 23:52:44 68° 284° (WNW) 23:56:53 145.865
ANTELSAT 28 Feb 00:00:02 00:03:42 27° 288° (WNW) 00:07:18 437.575/2403.000
TISAT 1 28 Feb 00:03:32 00:07:48 78° 77° (ENE) 00:12:06 437.305
DANDE 28 Feb 00:20:43 00:27:54 47° 96° (E) 00:33:36 436.750
QB50P1 28 Feb 00:20:59 00:24:37 28° 288° (WNW) 00:28:10 145.935-145.965
ITUPSAT 1 28 Feb 00:22:24 00:25:32 18° 68° (ENE) 00:28:51 437.325
QB50P2 28 Feb 00:23:44 00:27:16 25° 289° (WNW) 00:30:42 145.880/145.840
PHONESAT 2.4 28 Feb 00:25:02 00:28:40 78° 21° (NNE) 00:32:16 2401.200-2431.200
DUCHIFAT 1 28 Feb 00:42:26 00:45:12 17° 291° (WNW) 00:47:48 145.980
VERMONT LUNAR 28 Feb 00:44:36 00:47:52 38° 209° (SSW) 00:51:05 437.305
BUGSAT 1 28 Feb 00:49:07 00:52:01 18° 291° (WNW) 00:54:47 437.445
POLYITAN 1 28 Feb 01:00:26 01:01:28 11° 293° (WNW) 01:02:14 437.675
POPSAT HIP 1 28 Feb 01:03:06 01:03:39 10° 294° (WNW) 01:03:57 437.405
CUSAT 1 28 Feb 01:09:52 01:16:50 56° 279° (W) 01:22:09 437.405
SO-50 28 Feb 01:19:48 01:21:12 12° 108° (ESE) 01:22:53 436.795
SWISSCUBE 28 Feb 01:23:43 01:28:30 89° 248° (WSW) 01:33:19 437.505
SPROUT 28 Feb 01:27:31 01:28:40 11° 271° (W) 01:29:31 437.525
BEESAT 28 Feb 01:33:00 01:37:45 77° 258° (WSW) 01:42:34 436.000
ITAMSAT 1 28 Feb 01:39:21 01:41:31 13° 90° (E) 01:44:01 435.822/435.867
Oscar 19 28 Feb 01:45:53 01:50:52 52° 100° (E) 01:55:52 437.125/150
